Time,TemperatureF,DewpointF,PressureIn,WindDirection,WindDirectionDegrees,WindSpeedMPH,WindSpeedGustMPH,Humidity,HourlyPrecipIn,Conditions,Clouds,dailyrainin,SolarRadiationWatts/m^2,SoftwareType,DateUTC
2013-04-23 00:10:00,66.5,8.0,29.65,NNW,329,1.0,2.0,10,0.00,,,0.00,0,weatherlink.com 1.10,2013-04-23 06:10:00,
2013-04-23 00:25:00,66.3,8.0,29.66,NNW,329,1.0,2.0,10,0.00,,,0.00,0,weatherlink.com 1.10,2013-04-23 06:25:00,
2013-04-23 00:40:00,66.4,8.0,29.66,North,360,1.0,3.0,10,0.00,,,0.00,0,weatherlink.com 1.10,2013-04-23 06:40:00,
2013-04-23 00:56:00,66.9,8.0,29.66,North,360,1.0,2.0,10,0.00,,,0.00,0,weatherlink.com 1.10,2013-04-23 06:56:00,
2013-04-23 01:11:00,66.9,8.0,29.66,NNE,32,0.0,2.0,10,0.00,,,0.00,0,weatherlink.com 1.10,2013-04-23 07:11:00,
2013-04-23 01:26:00,66.4,8.0,29.66,NNE,32,0.0,2.0,10,0.00,,,0.00,0,weatherlink.com 1.10,2013-04-23 07:26:00,
2013-04-23 01:41:00,66.5,10.0,29.66,NNE,32,1.0,5.0,11,0.00,,,0.00,0,weatherlink.com 1.10,2013-04-23 07:41:00,
2013-04-23 01:56:00,65.9,10.0,29.66,NNE,32,2.0,3.0,11,0.00,,,0.00,0,weatherlink.com 1.10,2013-04-23 07:56:00,
2013-04-23 02:11:00,65.8,10.0,29.66,NNE,32,1.0,4.0,11,0.00,,,0.00,0,weatherlink.com 1.10,2013-04-23 08:11:00,
2013-04-23 02:26:00,65.7,12.0,29.65,NNE,32,0.0,3.0,12,0.00,,,0.00,0,weatherlink.com 1.10,2013-04-23 08:26:00,
2013-04-23 02:41:00,64.6,11.0,29.65,NNW,343,1.0,7.0,12,0.00,,,0.00,0,weatherlink.com 1.10,2013-04-23 08:41:00,
2013-04-23 02:56:00,65.0,11.0,29.64,NNW,338,2.0,7.0,12,0.00,,,0.00,0,weatherlink.com 1.10,2013-04-23 08:56:00,
2013-04-23 03:11:00,66.3,10.0,29.64,WNW,300,1.0,10.0,11,0.00,,,0.00,0,weatherlink.com 1.10,2013-04-23 09:11:00,
2013-04-23 03:26:00,65.6,11.0,29.64,NW,315,3.0,6.0,12,0.00,,,0.00,0,weatherlink.com 1.10,2013-04-23 09:26:00,
2013-04-23 03:41:00,66.1,12.0,29.64,NW,322,1.0,6.0,12,0.00,,,0.00,0,weatherlink.com 1.10,2013-04-23 09:41:00,
2013-04-23 03:56:00,65.6,11.0,29.64,NW,326,2.0,6.0,12,0.00,,,0.00,0,weatherlink.com 1.10,2013-04-23 09:56:00,
2013-04-23 04:11:00,65.0,11.0,29.65,NW,319,0.0,7.0,12,0.00,,,0.00,0,weatherlink.com 1.10,2013-04-23 10:11:00,
2013-04-23 04:26:00,63.8,10.0,29.65,NW,319,2.0,3.0,12,0.00,,,0.00,0,weatherlink.com 1.10,2013-04-23 10:26:00,
2013-04-23 04:41:00,60.9,11.0,29.65,NW,319,0.0,1.0,14,0.00,,,0.00,0,weatherlink.com 1.10,2013-04-23 10:41:00,
2013-04-23 04:56:00,58.7,11.0,29.66,NW,323,3.0,4.0,15,0.00,,,0.00,0,weatherlink.com 1.10,2013-04-23 10:56:00,
2013-04-23 05:11:00,58.8,11.0,29.66,NNW,329,0.0,3.0,15,0.00,,,0.00,0,weatherlink.com 1.10,2013-04-23 11:11:00,
2013-04-23 05:26:00,58.4,11.0,29.66,NNE,28,4.0,4.0,15,0.00,,,0.00,0,weatherlink.com 1.10,2013-04-23 11:26:00,
2013-04-23 05:41:00,58.5,11.0,29.66,NE,37,0.0,3.0,15,0.00,,,0.00,0,weatherlink.com 1.10,2013-04-23 11:41:00,
2013-04-23 05:56:00,58.4,12.0,29.67,ENE,57,1.0,7.0,16,0.00,,,0.00,0,weatherlink.com 1.10,2013-04-23 11:56:00,
2013-04-23 06:11:00,59.0,13.0,29.68,ENE,57,4.0,5.0,16,0.00,,,0.00,0,weatherlink.com 1.10,2013-04-23 12:11:00,
2013-04-23 06:26:00,59.4,12.0,29.68,ENE,57,3.0,5.0,15,0.00,,,0.00,0,weatherlink.com 1.10,2013-04-23 12:26:00,
2013-04-23 06:41:00,59.6,12.0,29.69,ENE,57,3.0,4.0,15,0.00,,,0.00,12,weatherlink.com 1.10,2013-04-23 12:41:00,
2013-04-23 06:56:00,58.6,12.0,29.70,ENE,57,1.0,4.0,16,0.00,,,0.00,25,weatherlink.com 1.10,2013-04-23 12:56:00,
2013-04-23 07:11:00,59.1,13.0,29.70,ENE,57,0.0,4.0,16,0.00,,,0.00,53,weatherlink.com 1.10,2013-04-23 13:11:00,
2013-04-23 07:26:00,60.3,14.0,29.71,ENE,57,2.0,2.0,16,0.00,,,0.00,49,weatherlink.com 1.10,2013-04-23 13:26:00,
2013-04-23 07:41:00,60.3,14.0,29.71,ENE,57,2.0,2.0,16,0.00,,,0.00,174,weatherlink.com 1.10,2013-04-23 13:41:00,
2013-04-23 07:56:00,63.2,13.0,29.72,ENE,57,2.0,5.0,14,0.00,,,0.00,216,weatherlink.com 1.10,2013-04-23 13:56:00,
2013-04-23 08:11:00,65.3,13.0,29.72,ENE,57,3.0,5.0,13,0.00,,,0.00,302,weatherlink.com 1.10,2013-04-23 14:11:00,
2013-04-23 08:26:00,65.9,12.0,29.72,East,91,8.0,9.0,12,0.00,,,0.00,357,weatherlink.com 1.10,2013-04-23 14:26:00,
2013-04-23 08:42:00,66.4,12.0,29.72,East,92,6.0,7.0,12,0.00,,,0.00,413,weatherlink.com 1.10,2013-04-23 14:42:00,
2013-04-23 08:57:00,66.6,12.0,29.72,ESE,121,2.0,8.0,12,0.00,,,0.00,464,weatherlink.com 1.10,2013-04-23 14:57:00,
2013-04-23 09:12:00,67.2,11.0,29.72,WSW,244,6.0,10.0,11,0.00,,,0.00,519,weatherlink.com 1.10,2013-04-23 15:12:00,
2013-04-23 09:27:00,67.7,11.0,29.72,WSW,252,2.0,9.0,11,0.00,,,0.00,570,weatherlink.com 1.10,2013-04-23 15:27:00,
2013-04-23 09:42:00,68.6,12.0,29.72,SW,222,7.0,12.0,11,0.00,,,0.00,617,weatherlink.com 1.10,2013-04-23 15:42:00,
2013-04-23 09:57:00,69.6,13.0,29.72,SW,214,6.0,15.0,11,0.00,,,0.00,663,weatherlink.com 1.10,2013-04-23 15:57:00,
2013-04-23 10:12:00,70.3,11.0,29.72,SSW,207,3.0,7.0,10,0.00,,,0.00,707,weatherlink.com 1.10,2013-04-23 16:12:00,
2013-04-23 10:27:00,71.9,14.0,29.71,SSW,192,2.0,12.0,11,0.00,,,0.00,751,weatherlink.com 1.10,2013-04-23 16:27:00,
2013-04-23 10:42:00,72.4,15.0,29.71,South,190,6.0,9.0,11,0.00,,,0.00,789,weatherlink.com 1.10,2013-04-23 16:42:00,
2013-04-23 10:57:00,72.8,15.0,29.71,South,187,3.0,12.0,11,0.00,,,0.00,823,weatherlink.com 1.10,2013-04-23 16:57:00,
2013-04-23 11:12:00,73.4,16.0,29.71,South,180,2.0,9.0,11,0.00,,,0.00,853,weatherlink.com 1.10,2013-04-23 17:12:00,
2013-04-23 11:27:00,75.1,17.0,29.70,SW,225,10.0,13.0,11,0.00,,,0.00,882,weatherlink.com 1.10,2013-04-23 17:27:00,
2013-04-23 11:42:00,76.0,16.0,29.69,SSW,210,4.0,14.0,10,0.00,,,0.00,909,weatherlink.com 1.10,2013-04-23 17:42:00,
2013-04-23 11:57:00,77.0,14.0,29.68,WSW,239,10.0,21.0,9,0.00,,,0.00,926,weatherlink.com 1.10,2013-04-23 17:57:00,
2013-04-23 12:13:00,77.2,11.0,29.68,WSW,247,11.0,20.0,8,0.00,,,0.00,951,weatherlink.com 1.10,2013-04-23 18:13:00,
2013-04-23 12:28:00,77.2,14.0,29.67,SSW,204,7.0,20.0,9,0.00,,,0.00,958,weatherlink.com 1.10,2013-04-23 18:28:00,
2013-04-23 12:43:00,78.8,13.0,29.66,SW,232,4.0,22.0,8,0.00,,,0.00,969,weatherlink.com 1.10,2013-04-23 18:43:00,
2013-04-23 12:58:00,79.4,10.0,29.65,SSW,195,12.0,25.0,7,0.00,,,0.00,970,weatherlink.com 1.10,2013-04-23 18:58:00,
2013-04-23 13:13:00,79.4,10.0,29.64,SW,229,13.0,18.0,7,0.00,,,0.00,972,weatherlink.com 1.10,2013-04-23 19:13:00,
2013-04-23 13:28:00,80.2,11.0,29.64,South,187,8.0,23.0,7,0.00,,,0.00,967,weatherlink.com 1.10,2013-04-23 19:28:00,
2013-04-23 13:43:00,81.1,8.0,29.63,SW,229,12.0,21.0,6,0.00,,,0.00,962,weatherlink.com 1.10,2013-04-23 19:43:00,
2013-04-23 13:58:00,81.1,8.0,29.62,SSW,195,10.0,22.0,6,0.00,,,0.00,937,weatherlink.com 1.10,2013-04-23 19:58:00,
2013-04-23 14:13:00,80.9,8.0,29.62,South,182,15.0,20.0,6,0.00,,,0.00,937,weatherlink.com 1.10,2013-04-23 20:13:00,
2013-04-23 14:28:00,82.1,9.0,29.61,SSW,208,6.0,21.0,6,0.00,,,0.00,911,weatherlink.com 1.10,2013-04-23 20:28:00,
2013-04-23 14:43:00,82.9,5.0,29.61,South,190,6.0,22.0,5,0.00,,,0.00,902,weatherlink.com 1.10,2013-04-23 20:43:00,
2013-04-23 14:58:00,82.7,5.0,29.61,WSW,246,16.0,27.0,5,0.00,,,0.00,819,weatherlink.com 1.10,2013-04-23 20:58:00,
2013-04-23 15:13:00,82.8,9.0,29.59,South,184,12.0,23.0,6,0.00,,,0.00,835,weatherlink.com 1.10,2013-04-23 21:13:00,
2013-04-23 15:28:00,82.7,5.0,29.60,SSW,211,7.0,24.0,5,0.00,,,0.00,770,weatherlink.com 1.10,2013-04-23 21:28:00,
2013-04-23 15:43:00,83.0,5.0,29.59,South,173,10.0,23.0,5,0.00,,,0.00,744,weatherlink.com 1.10,2013-04-23 21:43:00,
2013-04-23 15:58:00,83.3,5.0,29.59,SSW,213,13.0,27.0,5,0.00,,,0.00,700,weatherlink.com 1.10,2013-04-23 21:58:00,
2013-04-23 16:13:00,83.0,5.0,29.58,SW,235,13.0,24.0,5,0.00,,,0.00,664,weatherlink.com 1.10,2013-04-23 22:13:00,
2013-04-23 16:28:00,82.8,5.0,29.58,SW,236,15.0,28.0,5,0.00,,,0.00,605,weatherlink.com 1.10,2013-04-23 22:28:00,
2013-04-23 16:43:00,82.7,5.0,29.58,WSW,239,13.0,34.0,5,0.00,,,0.00,552,weatherlink.com 1.10,2013-04-23 22:43:00,
2013-04-23 16:58:00,82.0,8.0,29.58,SW,229,22.0,27.0,6,0.00,,,0.00,512,weatherlink.com 1.10,2013-04-23 22:58:00,
2013-04-23 17:13:00,82.4,9.0,29.59,WSW,240,22.0,29.0,6,0.00,,,0.00,397,weatherlink.com 1.10,2013-04-23 23:13:00,
2013-04-23 17:28:00,81.1,8.0,29.59,SW,231,15.0,30.0,6,0.00,,,0.00,214,weatherlink.com 1.10,2013-04-23 23:28:00,
2013-04-23 17:43:00,79.9,7.0,29.59,SW,215,16.0,30.0,6,0.00,,,0.00,165,weatherlink.com 1.10,2013-04-23 23:43:00,
2013-04-23 17:58:00,80.8,8.0,29.60,SW,216,25.0,29.0,6,0.00,,,0.00,186,weatherlink.com 1.10,2013-04-23 23:58:00,
2013-04-23 18:13:00,79.3,6.0,29.60,SW,224,10.0,29.0,6,0.00,,,0.00,132,weatherlink.com 1.10,2013-04-24 00:13:00,
2013-04-23 18:28:00,79.8,7.0,29.60,WSW,242,6.0,21.0,6,0.00,,,0.00,241,weatherlink.com 1.10,2013-04-24 00:28:00,
2013-04-23 18:43:00,80.2,7.0,29.61,SW,219,16.0,28.0,6,0.00,,,0.00,178,weatherlink.com 1.10,2013-04-24 00:43:00,
2013-04-23 18:58:00,79.2,10.0,29.61,SW,215,19.0,26.0,7,0.00,,,0.00,114,weatherlink.com 1.10,2013-04-24 00:58:00,
2013-04-23 19:13:00,78.8,9.0,29.61,SW,222,20.0,25.0,7,0.00,,,0.00,53,weatherlink.com 1.10,2013-04-24 01:13:00,
2013-04-23 19:28:00,77.7,9.0,29.62,SW,236,16.0,24.0,7,0.00,,,0.00,19,weatherlink.com 1.10,2013-04-24 01:28:00,
2013-04-23 19:43:00,76.5,11.0,29.63,WSW,240,10.0,20.0,8,0.00,,,0.00,0,weatherlink.com 1.10,2013-04-24 01:43:00,
2013-04-23 19:58:00,75.7,10.0,29.64,WSW,256,10.0,17.0,8,0.00,,,0.00,0,weatherlink.com 1.10,2013-04-24 01:58:00,
2013-04-23 20:13:00,75.0,12.0,29.65,WSW,241,9.0,18.0,9,0.00,,,0.00,0,weatherlink.com 1.10,2013-04-24 02:13:00,
2013-04-23 20:28:00,74.5,12.0,29.65,SW,235,3.0,13.0,9,0.00,,,0.00,0,weatherlink.com 1.10,2013-04-24 02:28:00,
2013-04-23 20:43:00,73.6,14.0,29.66,SW,234,3.0,8.0,10,0.00,,,0.00,0,weatherlink.com 1.10,2013-04-24 02:43:00,
2013-04-23 20:58:00,72.3,13.0,29.66,SW,234,2.0,4.0,10,0.00,,,0.00,0,weatherlink.com 1.10,2013-04-24 02:58:00,
2013-04-23 21:13:00,72.1,12.0,29.68,SW,234,0.0,5.0,10,0.00,,,0.00,0,weatherlink.com 1.10,2013-04-24 03:13:00,
2013-04-23 21:43:00,69.8,13.0,29.70,NE,53,4.0,11.0,11,0.00,,,0.00,0,weatherlink.com 1.10,2013-04-24 03:43:00,
2013-04-23 21:58:00,68.4,17.0,29.71,ENE,67,9.0,22.0,14,0.00,,,0.00,0,weatherlink.com 1.10,2013-04-24 03:58:00,
2013-04-23 22:13:00,67.4,20.0,29.71,ENE,76,5.0,23.0,16,0.00,,,0.00,0,weatherlink.com 1.10,2013-04-24 04:13:00,
2013-04-23 22:28:00,65.1,20.0,29.72,ENE,71,11.0,16.0,18,0.00,,,0.00,0,weatherlink.com 1.10,2013-04-24 04:28:00,
2013-04-23 22:43:00,63.3,21.0,29.72,ENE,64,14.0,17.0,20,0.00,,,0.00,0,weatherlink.com 1.10,2013-04-24 04:43:00,
2013-04-23 22:58:00,61.7,22.0,29.73,East,86,9.0,21.0,22,0.00,,,0.00,0,weatherlink.com 1.10,2013-04-24 04:58:00,
2013-04-23 23:13:00,62.2,22.0,29.73,East,88,11.0,19.0,21,0.00,,,0.00,0,weatherlink.com 1.10,2013-04-24 05:13:00,
2013-04-23 23:28:00,61.5,23.0,29.73,East,95,14.0,22.0,23,0.00,,,0.00,0,weatherlink.com 1.10,2013-04-24 05:28:00,
2013-04-23 23:44:00,61.2,23.0,29.75,East,84,8.0,23.0,23,0.00,,,0.00,0,weatherlink.com 1.10,2013-04-24 05:44:00,
2013-04-23 23:59:00,62.2,20.0,29.78,NNE,19,2.0,20.0,20,0.00,,,0.00,0,weatherlink.com 1.10,2013-04-24 05:59:00,